Weather History for Worland, WY

Change the Weather History Date:

Friday, January 11, 2013

  Actual Average Record
Temperature  
Mean Temperature 15 °F 17 °F  
Max Temperature 24 °F 30 °F 52 °F (2006)
Min Temperature 6 °F 3 °F -29 °F (1963)
Degree Days  
Heating Degree Days 50 48  
Month to date heating degree days 562 538  
Since 1 July heating degree days 3304 3901  
Cooling Degree Days 0 0  
Month to date cooling degree days 0 0  
Year to date cooling degree days 0 0  
Moisture  
Dew Point 7 °F    
Average Humidity 79    
Maximum Humidity 88    
Minimum Humidity 69    
Precipitation  
Precipitation 0.03 in 0.00 in 0.13 in (1993)
Month to date precipitation 0.03 0.08  
Year to date precipitation 0.03 0.08  
Sea Level Pressure  
Sea Level Pressure 29.76 in    
Wind  
Wind Speed 15 mph (NW)    
Max Wind Speed 28 mph    
Max Gust Speed 43 mph    
Visibility 3 miles    
Events Fog , Snow    
T = Trace of Precipitation, MM = Missing Value Source: NWS Daily Summary

Daily Weather History Graph

Daily Weather History Graph

Search for Another Location

Airport:

Trip Planner

Search our weather history database for the weather conditions in past years. The results will help you decide how hot, cold, wet, or windy it might be!

Date:

Astronomy

Jan. 11, 2013 Rise Set
Actual Time 7:44 AM MST 4:55 PM MST
Civil Twilight 7:12 AM MST 5:27 PM MST
Nautical Twilight 6:36 AM MST 6:03 PM MST
Astronomical Twilight 6:01 AM MST 6:38 PM MST
Moon 7:18 AM MST (1/11) 5:19 PM MST (1/11)
Length of Visible Light 10h 15m
Length of Day
9h 10m
Waning Crescent, 0% of the Moon is Illuminated
Jan 11
Waning Crescent
Jan 11
New
Jan 18
First Quarter
Jan 26
Full
Feb 3
Last Quarter

Hourly Weather History & Observations

Time (MST) Temp. Windchill Dew Point Humidity Pressure Visibility Wind Dir Wind Speed Gust Speed Precip Events Conditions
12:20 AM 24.8 °F 14.6 °F 19.4 °F 80% 29.46 in 10.0 mi NNW 10.4 mph - N/A   Overcast
12:53 AM 23.0 °F 13.1 °F 19.0 °F 85% 29.53 in 10.0 mi NW 9.2 mph - N/A   Overcast
1:24 AM 21.2 °F 8.3 °F 17.6 °F 86% 29.48 in 1.8 mi NW 13.8 mph - 0.00 in Snow Light Snow
1:53 AM 19.9 °F 8.6 °F 16.0 °F 85% 29.56 in 1.8 mi NW 10.4 mph 19.6 mph 0.00 in Snow Light Snow
2:00 AM 19.4 °F 7.9 °F 15.8 °F 86% 29.49 in 2.0 mi NW 10.4 mph - 0.00 in Snow Light Snow
2:13 AM 19.4 °F 9.5 °F 15.8 °F 86% 29.50 in 3.0 mi NW 8.1 mph - 0.00 in Snow Light Snow
2:45 AM 19.4 °F 6.0 °F 15.8 °F 86% 29.51 in 1.8 mi WNW 13.8 mph - 0.00 in Snow Light Snow
2:53 AM 19.0 °F 6.1 °F 15.1 °F 85% 29.58 in 1.5 mi NW 12.7 mph - 0.00 in Snow Light Snow
3:53 AM 17.1 °F 3.6 °F 14.0 °F 88% 29.61 in 1.2 mi NW 12.7 mph - 0.01 in Snow Light Snow
4:42 AM 15.8 °F 4.2 °F 12.2 °F 86% 29.54 in 1.0 mi NW 9.2 mph - 0.00 in Snow Light Snow
5:34 AM 14.0 °F -0.2 °F 10.4 °F 86% 29.55 in 0.8 mi WNW 12.7 mph - 0.00 in Snow Light Snow
5:41 AM 14.0 °F -0.8 °F 10.4 °F 86% 29.56 in 1.0 mi NNW 13.8 mph - 0.00 in Snow Light Snow
5:53 AM 14.0 °F 1.2 °F 10.0 °F 84% 29.68 in 1.2 mi NW 10.4 mph - 0.00 in Snow Light Snow
6:22 AM 12.2 °F -0.2 °F 10.4 °F 92% 29.57 in 0.8 mi WNW 9.2 mph - 0.01 in Snow Light Snow
6:53 AM 12.9 °F -1.6 °F 9.0 °F 84% 29.71 in 0.8 mi WNW 12.7 mph - 0.01 in Snow Light Snow
7:07 AM 12.2 °F -1.8 °F 8.6 °F 85% 29.58 in 1.0 mi WNW 11.5 mph - 0.00 in Snow Light Snow
7:20 AM 12.2 °F -2.5 °F 8.6 °F 85% 29.58 in 1.0 mi WNW 12.7 mph - 0.00 in Snow Light Snow
7:53 AM 12.0 °F -5.1 °F 8.1 °F 84% 29.68 in 1.0 mi NW 17.3 mph 25.3 mph 0.01 in Snow Light Snow
8:18 AM 10.4 °F -6.6 °F 6.8 °F 85% 29.59 in 0.8 mi NW 16.1 mph - 0.00 in Snow Light Snow
8:25 AM 10.4 °F -7.7 °F 6.8 °F 85% 29.58 in 1.0 mi NW 18.4 mph 24.2 mph 0.00 in Snow Light Snow
8:53 AM 10.9 °F -2.6 °F 7.0 °F 84% 29.75 in 0.8 mi NW 10.4 mph 25.3 mph 0.00 in Snow Light Snow
9:04 AM 10.4 °F -4.8 °F 6.8 °F 85% 29.62 in 1.0 mi NW 12.7 mph - 0.00 in Snow Light Snow
9:20 AM 10.4 °F -8.6 °F 6.8 °F 85% 29.62 in 0.5 mi NW 20.7 mph 25.3 mph 0.00 in Snow Snow
9:35 AM 10.4 °F -7.7 °F 6.8 °F 85% 29.64 in 0.2 mi WNW 18.4 mph - 0.00 in Fog , Snow Snow
9:45 AM 10.4 °F -8.2 °F 6.8 °F 85% 29.64 in 0.5 mi NW 19.6 mph 26.5 mph 0.00 in Fog , Snow Light Snow
9:53 AM 10.0 °F -8.6 °F 6.1 °F 84% 29.81 in 0.8 mi WNW 19.6 mph 25.3 mph 0.00 in Snow Light Snow
10:53 AM 10.0 °F -7.1 °F 6.1 °F 84% 29.85 in 0.5 mi WNW 16.1 mph 23.0 mph 0.00 in Fog , Snow Light Snow
11:01 AM 10.4 °F -7.2 °F 6.8 °F 85% 29.68 in 0.8 mi WNW 17.3 mph 23.0 mph 0.00 in Snow Light Snow
11:53 AM 10.0 °F -8.6 °F 5.0 °F 80% 29.86 in 0.8 mi NW 19.6 mph 24.2 mph 0.00 in Snow Light Snow
12:11 PM 10.4 °F -6.6 °F 5.0 °F 79% 29.70 in 1.0 mi WNW 16.1 mph - 0.00 in Snow Light Snow
12:53 PM 10.0 °F -10.0 °F 5.0 °F 80% 29.86 in 1.2 mi NW 23.0 mph 29.9 mph 0.00 in Snow Light Snow
1:12 PM 10.4 °F -7.2 °F 5.0 °F 79% 29.70 in 3.0 mi NW 17.3 mph 25.3 mph 0.00 in Snow Light Snow
1:30 PM 10.4 °F -10.7 °F 5.0 °F 79% 29.71 in 1.5 mi NW 26.5 mph 32.2 mph 0.00 in Snow Light Snow
1:45 PM 10.4 °F -8.6 °F 5.0 °F 79% 29.71 in 1.2 mi NW 20.7 mph 27.6 mph 0.00 in Snow Light Snow
1:53 PM 10.0 °F -10.0 °F 3.9 °F 76% 29.90 in 1.2 mi NW 23.0 mph 28.8 mph 0.00 in Snow Light Snow
2:09 PM 10.4 °F -8.6 °F 3.2 °F 73% 29.73 in 2.0 mi NW 20.7 mph 29.9 mph 0.00 in Snow Light Snow
2:22 PM 10.4 °F -6.6 °F 3.2 °F 73% 29.74 in 5.0 mi NW 16.1 mph - 0.00 in Snow Light Snow
2:53 PM 10.0 °F -9.1 °F 3.0 °F 73% 29.95 in 2.5 mi NNW 20.7 mph 31.1 mph 0.00 in Snow Light Snow
3:02 PM 10.4 °F -5.4 °F 3.2 °F 73% 29.78 in 4.0 mi NW 13.8 mph 27.6 mph 0.00 in   Haze
3:53 PM 9.0 °F -9.5 °F 1.0 °F 70% 30.01 in 10.0 mi NNW 18.4 mph 24.2 mph 0.00 in   Overcast
4:53 PM 9.0 °F -9.0 °F -0.9 °F 64% 30.05 in 10.0 mi NW 17.3 mph 24.2 mph N/A   Overcast
5:53 PM 8.1 °F -10.2 °F -0.9 °F 67% 30.07 in 10.0 mi NW 17.3 mph - N/A   Overcast
6:53 PM 7.0 °F -12.1 °F -0.9 °F 70% 30.13 in 10.0 mi WNW 18.4 mph 42.6 mph N/A   Mostly Cloudy
7:53 PM 7.0 °F -8.3 °F -0.9 °F 70% 30.15 in 10.0 mi North 11.5 mph - N/A   Overcast
8:03 PM 8.6 °F -7.0 °F -0.4 °F 67% 29.94 in 10.0 mi NNW 12.7 mph - N/A   Overcast
8:26 PM 6.8 °F -7.8 °F 1.4 °F 79% 29.94 in 6.0 mi NW 10.4 mph - 0.00 in Snow Light Snow
8:53 PM 7.0 °F -9.1 °F 1.0 °F 77% 30.17 in 5.0 mi NNW 12.7 mph - 0.00 in Snow Light Snow
9:05 PM 6.8 °F -10.0 °F 1.4 °F 79% 29.95 in 2.5 mi NW 13.8 mph - 0.00 in Snow Light Snow
9:37 PM 6.8 °F -8.6 °F 1.4 °F 79% 29.95 in 1.5 mi NW 11.5 mph - 0.00 in Snow Light Snow
9:53 PM 7.0 °F -8.3 °F 3.0 °F 84% 30.19 in 1.5 mi NW 11.5 mph - 0.00 in Snow Light Snow
10:53 PM 7.0 °F -9.8 °F 1.9 °F 80% 30.20 in 1.5 mi NW 13.8 mph 19.6 mph 0.00 in Snow Light Snow
11:53 PM 7.0 °F -5.7 °F 3.0 °F 84% 30.22 in 1.0 mi NW 8.1 mph - 0.00 in Snow Light Snow